Location: Julian California
(33.0790°N, 116.6010°W)
Time: 08:19:36
(UTC-07:00)

DMSP B5D2-2 - Pass Details

Date: 14 June 2018
Orbit: 791 x 806 km, 98.4° (Epoch: 19 June)

Event Time Altitude Azimuth Distance (km) Brightness Sun altitude
Rises 22:12:18 0° 9° (N) 3,308 7.9 -22.7°
Reaches altitude 10° 22:14:39 10° 6° (N) 2,372 7.1 -23.0°
Maximum altitude 22:19:50 67° 285° (WNW) 861 4.3 -23.6°
Enters shadow 22:22:21 31° 212° (SSW) 1,372 5.1 -23.9°
